Home > Weather > Monterey > Past weeks

Flag for USA Past Weather in Monterey, California, USA — Yesterday and Last 2 Weeks

Now
55 °F

Clear.


Feels Like: 54 °F
Forecast: 52 / 64 °F
Wind: 5 mph from Southwest

Location: Monterey Peninsula Airport

Current Time: Jun 25, 2016 at 11:29:19 PM

Latest Report: Jun 25, 2016 at 10:54 PM


Visibility: 8 mi

Pressure: 30.03 "Hg

Humidity: 87%

Dew Point: 51 °F

Location of MontereyLocation

Past Weather in Monterey — Graph

°F

Monterey Temperature Yesterday

Maximum temperature yesterday: 67 °F (at 4:54 PM)
Minimum temperature yesterday: 53 °F (at 5:54 AM)
Average temperature yesterday: 58 °F

High & Low Weather Summary for the Past Weeks

 TemperatureHumidityPressure
High75 °F (Jun 19, 3:54 PM)97% (Jun 18, 6:54 AM)30.22 "Hg (Jun 18, 6:54 AM)
Low49 °F (Jun 11, 5:54 AM)34% (Jun 19, 6:54 PM)29.95 "Hg (Jun 11, 4:54 AM)
Average59 °F72%30.09 "Hg
* Reported Jun 10 9:54 PM — Jun 25 9:54 PM, Monterey, Weather by CustomWeather, © 2016

Note: Actual official high and low records may vary slightly from our data, if they occured in-between our weather recording intervals... More about our weather records

Advertising

Monterey Weather History for the Previous 24 Hours

Scroll right to see more
 ConditionsComfort  
Time TempWeatherWind HumidityBarometerVisibility
9:54 PM
Sat, Jun 25
57 °FClear.9 mph78%30.02 "Hg9 mi
8:54 PM58 °FSunny.9 mph78%30.00 "Hg9 mi
7:54 PM61 °FSunny.7 mph67%29.99 "Hg8 mi
6:54 PM66 °FSunny.8 mph56%29.99 "Hg10 mi
5:54 PM66 °FSunny.7 mph59%29.99 "Hg9 mi
4:54 PM64 °FSunny.9 mph65%30.00 "Hg8 mi
3:54 PM65 °FSunny.10 mph63%30.01 "Hg8 mi
2:54 PM64 °FSunny.10 mph65%30.02 "Hg8 mi
1:54 PM63 °FSunny.13 mph68%30.03 "Hg7 mi
12:54 PM64 °FSunny.10 mph65%30.03 "Hg10 mi
11:54 AM62 °FSunny.9 mph67%30.03 "Hg8 mi
10:54 AM60 °FSunny.7 mph72%30.03 "Hg10 mi
9:54 AM60 °FSunny.7 mph75%30.03 "Hg6 mi
8:54 AM60 °FSunny.3 mph75%30.03 "Hg6 mi
7:54 AM56 °FSunny.3 mph81%30.03 "Hg7 mi
6:54 AM53 °FSunny.No wind83%30.03 "Hg8 mi
5:54 AM50 °FClear.6 mph89%30.01 "Hg7 mi
4:54 AM50 °FPassing clouds.No wind89%30.01 "Hg7 mi
3:54 AM49 °FClear.3 mph86%30.01 "Hg9 mi
2:54 AM51 °FClear.3 mph86%30.01 "Hg9 mi
1:54 AM53 °FClear.No wind80%30.02 "Hg10 mi
12:54 AM55 °FClear.No wind83%30.04 "Hg8 mi
11:54 PM
Fri, Jun 24
56 °FClear.3 mph77%30.05 "Hg10 mi
Weather by CustomWeather, © 2016

See weather overviewHow to use our weather pages